Time,TemperatureF,DewpointF,PressureIn,WindDirection,WindDirectionDegrees,WindSpeedMPH,WindSpeedGustMPH,Humidity,HourlyPrecipIn,Conditions,Clouds,dailyrainin,SolarRadiationWatts/m^2,SoftwareType,DateUTC
2013-02-28 00:13:00,42.6,40.0,30.26,ESE,123,0.0,-999.0,91,-99.99,,,0.00,0,weatherlink.com 1.10,2013-02-28 08:13:00,
2013-02-28 00:28:00,42.5,40.0,30.26,SE,146,1.0,-999.0,91,-99.99,,,0.00,0,weatherlink.com 1.10,2013-02-28 08:28:00,
2013-02-28 00:43:00,42.5,40.0,30.26,NW,309,0.0,-999.0,92,-99.99,,,0.00,0,weatherlink.com 1.10,2013-02-28 08:43:00,
2013-02-28 00:58:00,42.3,40.0,30.26,NNE,21,0.0,-999.0,92,-99.99,,,0.01,0,weatherlink.com 1.10,2013-02-28 08:58:00,
2013-02-28 01:13:00,42.3,40.0,30.26,NNE,26,0.0,-999.0,92,-99.99,,,0.02,0,weatherlink.com 1.10,2013-02-28 09:13:00,
2013-02-28 01:28:00,42.3,40.0,30.25,NNE,26,0.0,-999.0,92,-99.99,,,0.02,0,weatherlink.com 1.10,2013-02-28 09:28:00,
2013-02-28 01:43:00,42.2,40.0,30.25,WSW,247,1.0,-999.0,92,-99.99,,,0.02,0,weatherlink.com 1.10,2013-02-28 09:43:00,
2013-02-28 01:58:00,42.1,40.0,30.24,ENE,57,1.0,-999.0,92,-99.99,,,0.03,0,weatherlink.com 1.10,2013-02-28 09:58:00,
2013-02-28 02:13:00,42.1,40.0,30.24,SE,139,0.0,-999.0,92,-99.99,,,0.03,0,weatherlink.com 1.10,2013-02-28 10:13:00,
2013-02-28 02:28:00,41.9,40.0,30.25,ESE,110,0.0,-999.0,92,-99.99,,,0.03,0,weatherlink.com 1.10,2013-02-28 10:28:00,
2013-02-28 02:43:00,41.9,40.0,30.24,ESE,110,0.0,-999.0,92,-99.99,,,0.04,0,weatherlink.com 1.10,2013-02-28 10:43:00,
2013-02-28 02:58:00,42.1,40.0,30.24,ESE,110,0.0,-999.0,92,-99.99,,,0.04,0,weatherlink.com 1.10,2013-02-28 10:58:00,
2013-02-28 03:13:00,42.2,40.0,30.24,ESE,110,0.0,-999.0,92,-99.99,,,0.04,0,weatherlink.com 1.10,2013-02-28 11:13:00,
2013-02-28 03:28:00,42.2,40.0,30.24,ESE,110,0.0,-999.0,93,-99.99,,,0.04,0,weatherlink.com 1.10,2013-02-28 11:28:00,
2013-02-28 03:43:00,42.1,40.0,30.23,ESE,110,1.0,-999.0,93,-99.99,,,0.05,0,weatherlink.com 1.10,2013-02-28 11:43:00,
2013-02-28 03:58:00,42.1,40.0,30.23,ENE,73,1.0,-999.0,93,-99.99,,,0.05,0,weatherlink.com 1.10,2013-02-28 11:58:00,
2013-02-28 04:13:00,41.9,40.0,30.23,ENE,73,0.0,-999.0,93,-99.99,,,0.06,0,weatherlink.com 1.10,2013-02-28 12:13:00,
2013-02-28 04:28:00,41.9,40.0,30.23,ENE,73,0.0,-999.0,93,-99.99,,,0.06,0,weatherlink.com 1.10,2013-02-28 12:28:00,
2013-02-28 04:43:00,41.9,40.0,30.22,ENE,73,0.0,-999.0,93,-99.99,,,0.07,0,weatherlink.com 1.10,2013-02-28 12:43:00,
2013-02-28 04:58:00,41.9,40.0,30.22,ENE,73,0.0,-999.0,93,-99.99,,,0.08,0,weatherlink.com 1.10,2013-02-28 12:58:00,
2013-02-28 05:13:00,41.9,40.0,30.22,ENE,73,0.0,-999.0,93,-99.99,,,0.08,0,weatherlink.com 1.10,2013-02-28 13:13:00,
2013-02-28 05:28:00,41.8,40.0,30.21,ENE,73,0.0,-999.0,93,-99.99,,,0.09,0,weatherlink.com 1.10,2013-02-28 13:28:00,
2013-02-28 05:43:00,41.8,40.0,30.21,ENE,73,0.0,-999.0,93,-99.99,,,0.09,0,weatherlink.com 1.10,2013-02-28 13:43:00,
2013-02-28 05:58:00,41.8,40.0,30.21,ENE,73,0.0,-999.0,93,-99.99,,,0.09,0,weatherlink.com 1.10,2013-02-28 13:58:00,
2013-02-28 06:13:00,41.6,40.0,30.21,ENE,73,1.0,-999.0,93,-99.99,,,0.09,0,weatherlink.com 1.10,2013-02-28 14:13:00,
2013-02-28 06:28:00,41.6,40.0,30.21,ENE,73,0.0,-999.0,93,-99.99,,,0.09,0,weatherlink.com 1.10,2013-02-28 14:28:00,
2013-02-28 06:43:00,41.6,40.0,30.21,ENE,73,0.0,-999.0,93,-99.99,,,0.09,0,weatherlink.com 1.10,2013-02-28 14:43:00,
2013-02-28 06:58:00,41.6,40.0,30.20,ENE,73,0.0,-999.0,93,-99.99,,,0.09,0,weatherlink.com 1.10,2013-02-28 14:58:00,
2013-02-28 07:13:00,41.6,40.0,30.20,ENE,73,1.0,-999.0,93,-99.99,,,0.09,9,weatherlink.com 1.10,2013-02-28 15:13:00,
2013-02-28 07:28:00,41.8,40.0,30.20,ENE,73,0.0,-999.0,93,-99.99,,,0.09,14,weatherlink.com 1.10,2013-02-28 15:28:00,
2013-02-28 07:43:00,41.8,40.0,30.19,ENE,73,0.0,-999.0,93,-99.99,,,0.09,18,weatherlink.com 1.10,2013-02-28 15:43:00,
2013-02-28 07:58:00,41.9,40.0,30.19,ESE,103,0.0,-999.0,93,-99.99,,,0.10,16,weatherlink.com 1.10,2013-02-28 15:58:00,
2013-02-28 08:13:00,42.1,40.0,30.19,ESE,103,0.0,-999.0,93,-99.99,,,0.11,19,weatherlink.com 1.10,2013-02-28 16:13:00,
2013-02-28 08:28:00,42.3,41.0,30.19,ESE,103,0.0,-999.0,93,-99.99,,,0.11,19,weatherlink.com 1.10,2013-02-28 16:28:00,
2013-02-28 08:43:00,42.5,41.0,30.19,ESE,103,0.0,-999.0,94,-99.99,,,0.12,28,weatherlink.com 1.10,2013-02-28 16:43:00,
2013-02-28 08:58:00,42.8,41.0,30.20,ESE,103,0.0,-999.0,94,-99.99,,,0.13,35,weatherlink.com 1.10,2013-02-28 16:58:00,
2013-02-28 09:13:00,43.1,42.0,30.20,ESE,103,0.0,-999.0,94,-99.99,,,0.14,49,weatherlink.com 1.10,2013-02-28 17:13:00,
2013-02-28 09:28:00,43.3,42.0,30.20,ESE,103,0.0,-999.0,94,-99.99,,,0.15,53,weatherlink.com 1.10,2013-02-28 17:28:00,
2013-02-28 09:43:00,43.6,42.0,30.20,ESE,103,0.0,-999.0,94,-99.99,,,0.16,62,weatherlink.com 1.10,2013-02-28 17:43:00,
2013-02-28 09:58:00,44.1,43.0,30.20,ESE,103,0.0,-999.0,94,-99.99,,,0.17,76,weatherlink.com 1.10,2013-02-28 17:58:00,
2013-02-28 10:13:00,44.6,43.0,30.20,ESE,103,1.0,-999.0,94,-99.99,,,0.17,60,weatherlink.com 1.10,2013-02-28 18:13:00,
2013-02-28 10:29:00,44.9,43.0,30.20,ESE,103,0.0,-999.0,94,-99.99,,,0.18,51,weatherlink.com 1.10,2013-02-28 18:29:00,
2013-02-28 10:44:00,45.2,44.0,30.21,WNW,288,0.0,-999.0,94,-99.99,,,0.18,37,weatherlink.com 1.10,2013-02-28 18:44:00,
2013-02-28 10:59:00,45.4,44.0,30.21,NE,52,0.0,-999.0,94,-99.99,,,0.18,46,weatherlink.com 1.10,2013-02-28 18:59:00,
2013-02-28 11:14:00,45.7,44.0,30.21,SSE,155,1.0,-999.0,94,-99.99,,,0.19,42,weatherlink.com 1.10,2013-02-28 19:14:00,
2013-02-28 11:29:00,46.0,44.0,30.22,SSE,150,1.0,-999.0,94,-99.99,,,0.19,56,weatherlink.com 1.10,2013-02-28 19:29:00,
2013-02-28 11:44:00,46.4,45.0,30.22,South,169,0.0,-999.0,94,-99.99,,,0.19,62,weatherlink.com 1.10,2013-02-28 19:44:00,
2013-02-28 11:59:00,46.8,45.0,30.22,South,171,2.0,-999.0,94,-99.99,,,0.19,37,weatherlink.com 1.10,2013-02-28 19:59:00,
2013-02-28 12:14:00,47.0,45.0,30.23,South,169,0.0,-999.0,94,-99.99,,,0.19,35,weatherlink.com 1.10,2013-02-28 20:14:00,
2013-02-28 12:29:00,47.0,45.0,30.23,SSW,192,1.0,-999.0,94,-99.99,,,0.19,33,weatherlink.com 1.10,2013-02-28 20:29:00,
2013-02-28 12:59:00,47.1,46.0,30.23,SSE,157,0.0,-999.0,94,-99.99,,,0.19,62,weatherlink.com 1.10,2013-02-28 20:59:00,
2013-02-28 13:14:00,47.3,46.0,30.23,SSE,159,1.0,-999.0,94,-99.99,,,0.19,88,weatherlink.com 1.10,2013-02-28 21:14:00,
2013-02-28 13:29:00,47.7,46.0,30.23,SE,143,5.0,-999.0,94,-99.99,,,0.19,84,weatherlink.com 1.10,2013-02-28 21:29:00,
2013-02-28 13:44:00,48.2,47.0,30.23,SSE,149,8.0,-999.0,94,-99.99,,,0.19,72,weatherlink.com 1.10,2013-02-28 21:44:00,
2013-02-28 13:59:00,48.6,47.0,30.23,South,190,2.0,-999.0,94,-99.99,,,0.19,42,weatherlink.com 1.10,2013-02-28 21:59:00,
2013-02-28 14:14:00,48.8,47.0,30.24,ENE,59,1.0,-999.0,94,-99.99,,,0.19,25,weatherlink.com 1.10,2013-02-28 22:14:00,
2013-02-28 14:29:00,48.9,47.0,30.24,NE,48,3.0,-999.0,94,-99.99,,,0.19,30,weatherlink.com 1.10,2013-02-28 22:29:00,
2013-02-28 14:44:00,49.1,48.0,30.24,SSW,209,0.0,-999.0,94,-99.99,,,0.19,49,weatherlink.com 1.10,2013-02-28 22:44:00,
2013-02-28 14:58:00,49.2,48.0,30.25,South,184,0.0,-999.0,94,-99.99,,,0.19,83,weatherlink.com 1.10,2013-02-28 22:58:00,
2013-02-28 15:13:00,49.5,48.0,30.26,SSE,148,4.0,-999.0,94,-99.99,,,0.19,47,weatherlink.com 1.10,2013-02-28 23:13:00,
2013-02-28 15:28:00,49.6,48.0,30.26,South,169,1.0,-999.0,94,-99.99,,,0.19,58,weatherlink.com 1.10,2013-02-28 23:28:00,
2013-02-28 15:43:00,49.9,48.0,30.26,ESE,115,2.0,-999.0,94,-99.99,,,0.19,70,weatherlink.com 1.10,2013-02-28 23:43:00,
2013-02-28 15:58:00,50.4,49.0,30.26,South,186,2.0,-999.0,94,-99.99,,,0.20,121,weatherlink.com 1.10,2013-02-28 23:58:00,
2013-02-28 16:13:00,50.8,49.0,30.26,SSW,198,0.0,-999.0,94,-99.99,,,0.20,76,weatherlink.com 1.10,2013-03-01 00:13:00,
2013-02-28 16:28:00,50.8,49.0,30.27,SW,219,2.0,-999.0,93,-99.99,,,0.20,42,weatherlink.com 1.10,2013-03-01 00:28:00,
2013-02-28 16:43:00,50.7,49.0,30.26,SSW,206,1.0,-999.0,93,-99.99,,,0.20,44,weatherlink.com 1.10,2013-03-01 00:43:00,
2013-02-28 16:58:00,50.7,49.0,30.26,SSW,204,2.0,-999.0,93,-99.99,,,0.20,19,weatherlink.com 1.10,2013-03-01 00:58:00,
2013-02-28 17:13:00,50.5,49.0,30.26,South,185,1.0,-999.0,93,-99.99,,,0.20,14,weatherlink.com 1.10,2013-03-01 01:13:00,
2013-02-28 17:28:00,50.5,49.0,30.26,West,273,2.0,-999.0,93,-99.99,,,0.20,12,weatherlink.com 1.10,2013-03-01 01:28:00,
2013-02-28 17:43:00,50.5,49.0,30.25,NE,36,2.0,-999.0,93,-99.99,,,0.20,7,weatherlink.com 1.10,2013-03-01 01:43:00,
2013-02-28 17:58:00,50.7,49.0,30.25,SW,236,1.0,-999.0,93,-99.99,,,0.20,0,weatherlink.com 1.10,2013-03-01 01:58:00,
2013-02-28 18:13:00,50.5,49.0,30.26,South,182,3.0,-999.0,93,-99.99,,,0.20,0,weatherlink.com 1.10,2013-03-01 02:13:00,
2013-02-28 18:28:00,50.7,49.0,30.26,SSW,201,2.0,-999.0,93,-99.99,,,0.20,0,weatherlink.com 1.10,2013-03-01 02:28:00,
2013-02-28 18:43:00,50.7,49.0,30.26,SSW,209,1.0,-999.0,93,-99.99,,,0.20,0,weatherlink.com 1.10,2013-03-01 02:43:00,
2013-02-28 18:58:00,50.7,49.0,30.27,SSW,194,3.0,-999.0,93,-99.99,,,0.20,0,weatherlink.com 1.10,2013-03-01 02:58:00,
2013-02-28 19:13:00,50.5,48.0,30.27,SSE,149,1.0,-999.0,92,-99.99,,,0.20,0,weatherlink.com 1.10,2013-03-01 03:13:00,
2013-02-28 19:28:00,50.7,49.0,30.27,West,275,2.0,-999.0,93,-99.99,,,0.20,0,weatherlink.com 1.10,2013-03-01 03:28:00,
2013-02-28 19:43:00,51.0,49.0,30.29,ESE,113,0.0,-999.0,93,-99.99,,,0.20,0,weatherlink.com 1.10,2013-03-01 03:43:00,
2013-02-28 19:58:00,51.3,49.0,30.29,SSW,213,4.0,-999.0,93,-99.99,,,0.20,0,weatherlink.com 1.10,2013-03-01 03:58:00,
2013-02-28 20:13:00,51.4,50.0,30.29,ESE,120,5.0,-999.0,93,-99.99,,,0.20,0,weatherlink.com 1.10,2013-03-01 04:13:00,
2013-02-28 20:28:00,51.3,49.0,30.29,SSE,159,2.0,-999.0,92,-99.99,,,0.20,0,weatherlink.com 1.10,2013-03-01 04:28:00,
2013-02-28 20:43:00,51.1,49.0,30.29,SSW,213,4.0,-999.0,92,-99.99,,,0.20,0,weatherlink.com 1.10,2013-03-01 04:43:00,
2013-02-28 20:58:00,51.3,49.0,30.29,WSW,248,0.0,-999.0,92,-99.99,,,0.20,0,weatherlink.com 1.10,2013-03-01 04:58:00,
2013-02-28 21:13:00,51.4,49.0,30.30,SSE,153,0.0,-999.0,92,-99.99,,,0.20,0,weatherlink.com 1.10,2013-03-01 05:13:00,
2013-02-28 21:28:00,51.6,49.0,30.30,ESE,116,1.0,-999.0,91,-99.99,,,0.20,0,weatherlink.com 1.10,2013-03-01 05:28:00,
2013-02-28 21:43:00,51.6,49.0,30.31,WSW,245,2.0,-999.0,91,-99.99,,,0.20,0,weatherlink.com 1.10,2013-03-01 05:43:00,
2013-02-28 21:58:00,51.6,49.0,30.31,West,275,0.0,-999.0,90,-99.99,,,0.20,0,weatherlink.com 1.10,2013-03-01 05:58:00,
2013-02-28 22:13:00,51.6,49.0,30.31,SSW,211,4.0,-999.0,90,-99.99,,,0.20,0,weatherlink.com 1.10,2013-03-01 06:13:00,
2013-02-28 22:28:00,51.4,49.0,30.32,SSE,157,2.0,-999.0,90,-99.99,,,0.20,0,weatherlink.com 1.10,2013-03-01 06:28:00,
2013-02-28 22:43:00,51.4,49.0,30.32,SW,229,4.0,-999.0,90,-99.99,,,0.20,0,weatherlink.com 1.10,2013-03-01 06:43:00,
2013-02-28 22:58:00,51.4,49.0,30.32,SSW,203,3.0,-999.0,90,-99.99,,,0.20,0,weatherlink.com 1.10,2013-03-01 06:58:00,
2013-02-28 23:13:00,51.4,49.0,30.32,SW,219,0.0,-999.0,90,-99.99,,,0.20,0,weatherlink.com 1.10,2013-03-01 07:13:00,
2013-02-28 23:28:00,51.6,49.0,30.32,SSW,200,3.0,-999.0,90,-99.99,,,0.21,0,weatherlink.com 1.10,2013-03-01 07:28:00,
2013-02-28 23:43:00,51.4,49.0,30.31,SSE,147,2.0,-999.0,90,-99.99,,,0.21,0,weatherlink.com 1.10,2013-03-01 07:43:00,
2013-02-28 23:58:00,51.4,49.0,30.32,ESE,123,3.0,-999.0,90,-99.99,,,0.22,0,weatherlink.com 1.10,2013-03-01 07:58:00,